Torna al catalogo

CONNECTA IOT-15

AttivoComunicazioniSSO
NORAD 67402·PAYLOAD·🇹🇷 Turkey

Lanciato Jan 11, 2026 da Vandenberg Space Force Base

Loading…

Prossimi Passaggi (prossime 24 ore)

TLE

AggiornatoSource: Space-Track

Epoca: Sep 14, 2026, 10:56 UTC

1 67402U 26004AR  26257.45612226  .00005713  00000-0  28063-3 0  9999
2 67402  97.4627 255.0502 0004405  48.0754 312.0856 15.18441576 37272

Traccia CONNECTA IOT-15 in tempo reale con AllMySat

Download on the App Store